Terug naar catalogus

FENGYUN 1C DEB

ActiefSSO
NORAD 35167·DEBRIS·🇨🇳 China

Gelanceerd May 10, 1999 vanaf Taiyuan Satellite Launch Center

Loading…

Volgende Passages (komende 24 uur)

TLE

VersSource: Space-Track

Epoch: Sep 12, 2026, 22:11 UTC

1 35167U 99025DMX 26255.92460862  .00000912  00000-0  26746-3 0  9994
2 35167  98.4669 247.3955 0228571 112.3647 250.1931 14.32079238739436

Volg FENGYUN 1C DEB in realtime met AllMySat

Download on the App Store